{"data":{"norad_id":56901,"epoch":"2026-05-24T21:32:46.057920Z","epoch_age_seconds":86957,"freshness":"FRESH","line1":"1 56901U 23083AB  26144.89775530  .00000275  00000+0  19522-4 0  9994","line2":"2 56901  43.0067  11.5496 0001731 254.7640 105.3020 15.27572313163433","mean_motion":15.27572313,"eccentricity":0.0001731,"inclination_deg":43.0067,"raan_deg":11.5496,"arg_perigee_deg":254.764,"mean_anomaly_deg":105.302,"bstar":1.9522e-5,"rev_number":16343,"period_min":94.267223079736,"perigee_km":481.88443848196,"apogee_km":484.25978907716,"semimajor_km":6861.2091137796,"source":"CELESTRAK","updated_at":"2026-05-25T13:38:18.200124Z"}}